La Porte, IN

2:18 AM CST on February 21, 2018 (GMT -0600)
La Porte Municipal

Weather History for KPPO - February, 2013

Change the Weather History Date:

Sunday, February 10, 2013

  Actual Average (KSBN) Record (KSBN)
Temperature  
Mean Temperature 39 °F -  
Max Temperature 48 °F 32 °F 62 °F (2009)
Min Temperature 30 °F 17 °F -20 °F (1899)
Degree Days  
Heating Degree Days 26    
Moisture  
Dew Point 33 °F    
Average Humidity 83    
Maximum Humidity 99    
Minimum Humidity 66    
Precipitation  
Precipitation 0.09 in - - ()
Sea Level Pressure  
Sea Level Pressure 29.83 in    
Wind  
Wind Speed 9 mph (SSE)    
Max Wind Speed 23 mph    
Max Gust Speed 31 mph    
Visibility 9 miles    
Events Rain    
Averages and records for this station are not official NWS values.
T = Trace of Precipitation, MM = Missing Value Source: NWS Daily Summary

Daily Weather History Graph

Daily Weather History Graph

Search for Another Location

Airport or City:

Trip Planner

Search our weather history database for the weather conditions in past years. The results will help you decide how hot, cold, wet, or windy it might be!

Date:

Astronomy

Feb. 10, 2013 Rise Set
Actual Time 6:48 AM CST 5:14 PM CST
Civil Twilight 6:19 AM CST 5:43 PM CST
Nautical Twilight 5:46 AM CST 6:16 PM CST
Astronomical Twilight 5:14 AM CST 6:48 PM CST
Moon 6:36 AM CST (2/10) 6:06 PM CST (2/10)
Length of Visible Light 11h 23m
Length of Day
10h 26m
New Moon, 0% of the Moon is Illuminated
Feb 10
New Moon
Feb 17
First Quarter
Feb 25
Full
Mar 4
Last Quarter
Mar 11
New

Hourly Weather History & Observations

Time (CST) Temp. Windchill Dew Point Humidity Pressure Visibility Wind Dir Wind Speed Gust Speed Precip Events Conditions
12:15 AM 31.5 °F 25.8 °F 21.9 °F 68% 30.12 in 10.0 mi SSE 5.8 mph - N/A   Clear
12:35 AM 32.0 °F 25.6 °F 21.7 °F 66% 30.12 in 10.0 mi SSE 6.9 mph - N/A   Clear
12:55 AM 31.5 °F 24.9 °F 21.6 °F 67% 30.11 in 10.0 mi SSE 6.9 mph - N/A   Clear
1:15 AM 31.1 °F 24.5 °F 21.2 °F 67% 30.11 in 10.0 mi SSE 6.9 mph - N/A   Clear
1:35 AM 31.5 °F 24.9 °F 21.6 °F 67% 30.11 in 10.0 mi SSE 6.9 mph - N/A   Clear
1:55 AM 31.5 °F 25.8 °F 21.7 °F 67% 30.11 in 10.0 mi SSE 5.8 mph - N/A   Clear
2:35 AM 31.1 °F 24.5 °F 22.1 °F 69% 30.11 in 10.0 mi SSE 6.9 mph - N/A   Clear
2:55 AM 30.9 °F 25.2 °F 22.5 °F 71% 30.09 in 10.0 mi SSE 5.8 mph - N/A   Clear
3:15 AM 31.1 °F 25.4 °F 22.5 °F 70% 30.08 in 10.0 mi SSE 5.8 mph - N/A   Clear
3:35 AM 31.8 °F 25.4 °F 22.5 °F 68% 30.08 in 10.0 mi SSE 6.9 mph - N/A   Clear
3:55 AM 31.8 °F 25.4 °F 22.6 °F 69% 30.08 in 10.0 mi SSE 6.9 mph - N/A   Clear
4:15 AM 32.0 °F 24.8 °F 23.0 °F 69% 30.07 in 10.0 mi SSE 8.1 mph - N/A   Clear
4:35 AM 32.0 °F 27.5 °F 23.5 °F 71% 30.05 in 10.0 mi SE 4.6 mph - N/A   Mostly Cloudy
4:55 AM 32.2 °F 25.0 °F 25.3 °F 76% 30.05 in 10.0 mi SSE 8.1 mph - N/A   Overcast
5:15 AM 32.4 °F 25.3 °F 26.1 °F 78% 30.04 in 10.0 mi SSE 8.1 mph - N/A   Overcast
5:35 AM 32.7 °F 25.7 °F 26.2 °F 77% 30.04 in 10.0 mi South 8.1 mph - N/A   Overcast
5:55 AM 32.7 °F 25.7 °F 27.3 °F 81% 30.04 in 10.0 mi SSE 8.1 mph - N/A   Overcast
6:15 AM 32.5 °F 26.2 °F 28.4 °F 85% 30.03 in 10.0 mi SSE 6.9 mph - N/A   Overcast
6:35 AM 32.9 °F 26.7 °F 28.8 °F 85% 30.02 in 10.0 mi SSE 6.9 mph - N/A   Overcast
6:55 AM 33.3 °F 25.7 °F 28.8 °F 84% 30.01 in 10.0 mi SSE 9.2 mph - N/A   Overcast
7:15 AM 33.1 °F 26.9 °F 28.9 °F 85% 29.99 in 10.0 mi SE 6.9 mph - N/A   Overcast
7:35 AM 33.1 °F 26.9 °F 28.8 °F 84% 29.98 in 10.0 mi SE 6.9 mph - N/A   Overcast
7:55 AM 33.3 °F 27.1 °F 29.1 °F 85% 29.97 in 10.0 mi SE 6.9 mph - N/A   Overcast
8:15 AM 33.8 °F 29.6 °F 29.3 °F 84% 29.98 in 10.0 mi SE 4.6 mph - N/A   Drizzle
8:35 AM 33.8 °F 27.7 °F 29.8 °F 85% 29.99 in 10.0 mi SSE 6.9 mph - N/A   Light Drizzle
8:55 AM 34.7 °F 27.5 °F 30.2 °F 84% 29.99 in 10.0 mi SSE 9.2 mph - N/A   Overcast
9:15 AM 34.9 °F 26.6 °F 30.2 °F 83% 29.97 in 10.0 mi SSE 11.5 mph 16.1 mph N/A   Overcast
9:35 AM 35.2 °F 28.1 °F 29.5 °F 80% 29.96 in 10.0 mi SSE 9.2 mph - N/A   Overcast
9:55 AM 36.0 °F 29.0 °F 28.9 °F 76% 29.95 in 10.0 mi SSE 9.2 mph 18.4 mph N/A   Overcast
10:15 AM 36.1 °F 29.9 °F 29.3 °F 76% 29.93 in 10.0 mi SSE 8.1 mph - N/A   Overcast
10:35 AM 36.5 °F 30.3 °F 30.2 °F 78% 29.91 in 10.0 mi SSE 8.1 mph 17.3 mph N/A   Overcast
10:55 AM 36.7 °F 29.9 °F 30.9 °F 80% 29.90 in 10.0 mi SSE 9.2 mph - N/A   Overcast
11:15 AM 37.8 °F 31.3 °F 31.5 °F 78% 29.88 in 10.0 mi SE 9.2 mph - N/A   Overcast
11:35 AM 38.3 °F 31.9 °F 32.0 °F 78% 29.86 in 10.0 mi SSE 9.2 mph - N/A   Overcast
11:55 AM 39.4 °F 33.8 °F 32.0 °F 75% 29.84 in 10.0 mi SSE 8.1 mph - N/A   Drizzle
12:15 PM 39.2 °F 33.0 °F 32.4 °F 76% 29.83 in 10.0 mi SSE 9.2 mph - N/A Rain Rain
12:35 PM 39.7 °F 33.7 °F 32.9 °F 77% 29.82 in 10.0 mi South 9.2 mph 16.1 mph N/A   Light Drizzle
12:55 PM 40.3 °F 34.4 °F 32.9 °F 75% 29.79 in 10.0 mi SSE 9.2 mph 17.3 mph N/A Rain Light Rain
1:15 PM 40.5 °F 34.6 °F 33.3 °F 75% 29.77 in 10.0 mi SSE 9.2 mph - N/A Rain Light Rain
1:35 PM 40.1 °F 33.6 °F 34.2 °F 79% 29.77 in 10.0 mi South 10.4 mph - 0.01 in Rain Light Rain
1:55 PM 39.6 °F 32.5 °F 35.6 °F 86% 29.76 in 5.0 mi SSE 11.5 mph - 0.03 in Rain Rain
2:15 PM 39.4 °F 31.4 °F 36.1 °F 88% 29.74 in 4.0 mi SSE 13.8 mph 18.4 mph 0.03 in Rain Rain
2:35 PM 39.0 °F 30.6 °F 36.3 °F 90% 29.69 in 3.0 mi SE 15.0 mph 21.9 mph 0.06 in Rain Rain
2:55 PM 39.6 °F 31.0 °F 37.2 °F 91% 29.69 in 10.0 mi SSE 16.1 mph 21.9 mph 0.06 in Rain Light Rain
3:15 PM 40.8 °F 32.9 °F 37.4 °F 88% 29.68 in 10.0 mi SSE 15.0 mph 24.2 mph N/A   Overcast
3:35 PM 41.2 °F 33.7 °F 37.4 °F 86% 29.67 in 10.0 mi SSE 13.8 mph 19.6 mph N/A   Overcast
3:55 PM 41.4 °F 34.0 °F 37.9 °F 88% 29.66 in 10.0 mi South 13.8 mph 20.7 mph N/A   Overcast
4:15 PM 41.9 °F 35.0 °F 38.5 °F 88% 29.65 in 10.0 mi SSE 12.7 mph 24.2 mph N/A   Overcast
4:35 PM 42.1 °F 33.6 °F 38.8 °F 88% 29.64 in 7.0 mi SSE 18.4 mph 23.0 mph N/A   Drizzle
4:55 PM 41.5 °F 34.6 °F 39.4 °F 92% 29.64 in 10.0 mi SSE 12.7 mph 18.4 mph N/A   Overcast
5:15 PM 41.7 °F 34.4 °F 39.2 °F 91% 29.63 in 10.0 mi South 13.8 mph 23.0 mph N/A   Overcast
5:35 PM 42.1 °F 34.2 °F 39.2 °F 90% 29.63 in 10.0 mi South 16.1 mph 19.6 mph N/A   Overcast
5:55 PM 42.3 °F 34.4 °F 39.4 °F 90% 29.63 in 7.0 mi South 16.1 mph 21.9 mph N/A   Overcast
6:15 PM 42.3 °F 35.1 °F 40.3 °F 93% 29.63 in 5.0 mi South 13.8 mph 25.3 mph N/A Rain Rain
6:35 PM 42.3 °F 34.4 °F 41.0 °F 95% 29.63 in 4.0 mi South 16.1 mph 19.6 mph N/A   Drizzle
6:55 PM 42.3 °F 35.1 °F 41.5 °F 97% 29.63 in 4.0 mi South 13.8 mph 20.7 mph N/A   Light Drizzle
7:15 PM 42.6 °F 35.9 °F 41.9 °F 97% 29.62 in 7.0 mi South 12.7 mph 18.4 mph N/A   Overcast
7:35 PM 43.0 °F 36.8 °F 42.8 °F 99% 29.62 in 7.0 mi South 11.5 mph 17.3 mph N/A   Overcast
7:55 PM 43.7 °F 38.6 °F 43.5 °F 99% 29.61 in 10.0 mi South 9.2 mph 17.3 mph N/A   Overcast
8:15 PM 44.6 °F 38.4 °F 44.1 °F 98% 29.61 in 10.0 mi South 12.7 mph 20.7 mph N/A   Overcast
8:35 PM 45.5 °F 38.9 °F 45.0 °F 98% 29.60 in 10.0 mi South 15.0 mph 20.7 mph N/A   Overcast
8:55 PM 46.0 °F 39.9 °F 45.1 °F 97% 29.59 in 10.0 mi South 13.8 mph 20.7 mph N/A   Overcast
9:15 PM 46.4 °F 40.7 °F 45.1 °F 95% 29.59 in 10.0 mi South 12.7 mph 20.7 mph N/A   Overcast
9:35 PM 46.2 °F 39.8 °F 45.0 °F 95% 29.58 in 10.0 mi South 15.0 mph 20.7 mph N/A   Overcast
10:15 PM 47.5 °F - 45.3 °F 92% 29.57 in 10.0 mi SSW 16.1 mph 26.5 mph N/A   Overcast
10:35 PM 47.7 °F - 45.1 °F 91% 29.57 in 10.0 mi SSW 16.1 mph 25.3 mph N/A   Overcast
10:55 PM 47.7 °F - 45.0 °F 90% 29.57 in 10.0 mi SSW 16.1 mph 23.0 mph N/A   Overcast
11:15 PM 47.8 °F - 45.0 °F 90% 29.57 in 10.0 mi SW 21.9 mph 27.6 mph N/A   Overcast
11:35 PM 48.4 °F - 45.1 °F 89% 29.57 in 10.0 mi SW 17.3 mph 27.6 mph N/A   Overcast
11:55 PM 48.2 °F - 45.1 °F 89% 29.57 in 10.0 mi SW 23.0 mph 31.1 mph N/A   Overcast